Temp
15 16 16 16 16 16 15 15 16 17 17 17 17 17 17 17 17 18 17 17 16 16 16 15 15 15 15 15 15 15 15 15 15 15 15 15 15 15 15 15 15 15 14 14 14 14 15 15 14 14 14 14 14 14 14 13 13 13 13 13 13 13 13 13 11 11 10 10 10 11 11 11 11 11 11 11 11 11 12 12 12 12 12 12 12
15 15 16 15 16 16 16 15 15 15 16 17 17 17 17 17 17 18 18 18 17 17 16 16 16 15 15 15 15 15 15 15 15 15 15 15 15 15 15 15 15 14 14 14 14 14 14 15 14 14 14 14 14 14 14 13 13 13 13 13 13 13 12 13 12 11 10 10 10 10 10 10 10 10 11 11 11 11 11 11 11 11 11 11 12
14 15 15 15 16 16 16 16 15 14 14 15 16 17 17 17 17 17 18 18 17 17 16 16 16 16 15 15 15 15 15 15 15 15 15 15 15 15 15 15 15 15 15 15 14 14 14 14 14 14 14 14 14 14 14 14 14 14 13 13 13 13 12 12 12 11 11 10 10 10 10 10 10 10 10 10 10 11 11 11 11 11 11 11 11
14 14 14 15 15 15 15 15 15 13 14 14 15 16 17 17 16 16 17 17 17 17 17 16 16 16 16 16 15 15 15 15 15 15 15 15 15 15 15 15 15 15 15 15 15 15 14 14 15 14 14 14 14 14 14 14 14 14 13 13 13 12 12 12 12 12 11 11 10 10 10 10 10 10 10 10 10 10 10 10 10 10 10 10 10
13 13 14 14 14 14 14 14 13 13 14 15 15 16 17 17 16 16 16 16 16 16 16 16 16 15 15 15 15 15 15 15 15 15 15 15 15 15 15 15 15 15 15 15 15 15 15 15 15 15 15 14 14 14 14 14 14 13 13 13 12 12 12 12 12 12 12 11 10 10 10 10 10 10 10 10 10 10 10 10 10 10 10 10 9
14 13 13 13 13 13 14 14 13 13 14 15 15 15 16 16 16 16 16 16 15 14 15 15 15 15 14 15 15 15 15 15 15 15 14 14 15 15 15 16 16 16 15 15 15 15 15 15 15 14 15 15 14 14 14 14 13 13 13 13 12 12 12 12 12 12 12 11 10 10 10 10 10 10 10 10 10 10 10 10 9 9 9 9 9
14 13 13 13 13 14 14 14 14 14 15 15 15 15 15 16 16 15 15 15 15 14 14 14 14 14 14 15 15 15 14 14 14 14 14 14 14 15 15 15 15 16 16 15 15 15 15 15 15 15 15 15 15 14 14 14 14 13 13 13 12 12 12 12 12 12 11 11 11 10 10 9 9 9 9 9 9 9 9 9 9 9 9 8 8
13 13 13 14 14 14 14 14 14 15 15 15 15 15 15 15 15 14 15 15 15 14 14 14 14 15 14 14 14 14 14 14 14 14 14 13 14 15 15 15 15 15 15 15 15 15 15 15 15 15 15 15 15 15 15 14 14 13 13 13 12 12 12 12 12 12 11 11 11 10 10 9 9 9 9 9 8 8 8 8 8 8 8 8 8
13 13 13 13 14 14 14 14 15 15 15 14 14 15 15 14 14 14 14 14 14 14 14 14 14 14 14 13 14 14 13 13 13 13 13 13 14 14 15 15 15 15 15 15 15 15 15 15 15 15 15 15 15 15 15 14 14 14 13 13 13 12 12 12 12 11 11 11 11 10 10 9 9 9 8 8 7 7 7 7 7 7 7 8 8
13 13 13 13 14 14 14 15 15 15 15 14 14 14 14 14 15 15 14 14 14 14 14 14 14 14 14 14 14 13 13 13 13 13 13 14 14 14 15 15 14 14 14 14 15 15 15 15 15 15 15 15 15 15 14 14 14 14 14 13 13 13 12 12 12 11 11 11 10 10 10 9 9 8 8 7 7 7 7 7 6 6 6 7 7
13 13 13 14 14 14 14 14 14 15 15 14 14 14 14 15 15 15 14 14 14 14 14 14 14 14 14 14 14 13 13 13 13 13 14 14 14 14 14 14 14 14 14 14 14 14 14 14 14 14 14 14 14 14 14 14 14 13 13 13 13 12 12 12 11 11 11 10 10 10 9 9 8 8 7 7 7 6 6 6 6 6 5 5 5
14 13 13 14 14 13 13 12 12 13 12 13 13 13 14 15 15 14 14 14 14 14 14 15 15 15 15 14 14 13 13 13 13 13 14 14 14 14 14 14 14 14 14 14 14 14 14 14 14 14 14 14 14 14 14 13 13 13 13 13 12 12 12 12 11 11 10 10 10 9 9 8 8 7 7 7 6 6 6 5 5 5 4 4 4
13 13 13 14 13 12 12 11 11 12 12 13 14 14 14 15 14 14 14 14 15 15 15 15 15 15 15 14 13 13 13 13 13 14 14 14 14 14 14 14 13 13 13 13 13 13 13 13 13 13 13 13 13 13 13 13 13 12 12 12 12 11 11 11 11 11 10 10 9 9 8 8 7 7 6 6 6 5 5 5 5 5 4 4 3
13 12 13 13 13 12 11 11 12 12 13 14 14 14 14 14 13 13 14 14 14 14 14 14 15 15 14 14 13 12 13 13 13 14 14 14 14 14 14 13 13 13 13 13 13 13 13 13 13 13 12 12 13 13 12 12 12 12 12 11 11 11 11 10 10 10 9 9 9 8 8 7 7 6 6 5 5 5 5 5 5 4 4 4 4
12 12 12 12 12 12 12 12 12 13 14 14 14 13 13 13 13 13 14 14 15 15 15 15 15 15 14 14 13 13 13 13 13 14 14 14 14 14 14 13 13 13 13 13 13 13 12 12 12 12 12 12 12 12 12 12 12 12 11 11 11 11 10 10 10 9 9 8 8 8 7 6 6 5 5 5 5 5 4 4 4 4 3 3 3
12 12 12 12 12 12 12 12 13 13 13 13 13 13 13 13 13 14 14 14 15 15 15 15 15 14 14 14 14 13 13 13 14 14 13 13 13 13 13 13 13 13 13 12 12 12 12 12 11 11 11 11 11 11 11 12 12 11 11 11 10 10 9 9 8 8 8 7 7 7 6 6 6 5 5 5 4 4 4 4 4 3 3 2 2
12 12 12 13 13 13 13 13 13 13 13 13 13 13 13 13 13 13 14 14 14 14 14 14 14 14 14 14 14 14 14 14 14 13 13 13 13 13 13 13 13 13 12 12 12 12 12 11 11 10 11 11 11 11 11 11 11 11 11 10 9 9 8 8 7 7 7 6 6 6 6 5 5 5 5 4 4 4 3 3 3 3 2 2 2
12 12 12 13 13 13 13 13 13 13 13 13 13 13 13 13 13 14 14 14 14 15 15 14 14 14 14 14 14 13 13 13 13 13 12 12 12 12 12 12 12 12 12 11 11 11 11 11 10 10 10 11 11 11 11 11 11 10 10 9 8 8 7 7 6 6 6 6 5 5 5 5 5 4 4 4 3 3 3 3 3 2 2 2 1
12 12 12 13 13 13 13 13 13 13 13 14 14 14 14 14 14 14 15 15 14 14 14 14 14 14 14 14 13 13 13 13 12 12 12 12 12 12 12 11 11 11 11 11 11 10 10 10 10 10 10 10 10 10 10 10 9 9 9 8 8 7 6 6 6 6 5 5 5 5 5 4 4 4 3 3 3 3 2 2 2 2 2 1 1
11 11 12 12 13 13 13 13 13 13 13 14 14 14 14 14 14 14 14 14 14 14 14 14 14 13 13 13 13 12 12 12 12 12 11 11 11 11 11 11 11 11 10 10 10 10 10 9 9 9 9 9 9 9 9 8 8 8 8 7 7 6 6 5 5 5 5 5 4 4 4 4 3 3 3 3 2 2 2 2 2 2 1 1 1
11 11 11 11 12 12 12 13 13 14 14 13 13 14 14 14 14 14 14 14 14 14 14 14 14 13 13 13 12 12 12 11 11 11 11 11 11 11 11 10 10 10 10 10 9 9 9 9 8 8 8 8 8 8 8 8 7 7 7 7 6 6 5 5 4 4 4 4 3 3 3 3 3 2 2 2 2 2 1 1 1 1 1 1 1
10 11 11 11 12 12 12 12 13 13 13 13 13 13 13 13 14 14 14 14 14 14 14 13 13 13 13 13 12 12 12 12 12 11 11 11 11 11 11 10 10 10 10 9 9 8 8 8 8 7 7 7 7 7 7 7 7 6 6 6 5 5 4 4 4 3 3 3 3 2 2 2 2 2 1 1 1 1 1 1 1 1 1 1 1
9 9 10 11 11 12 12 12 12 12 13 13 13 13 13 13 13 13 14 14 13 13 13 13 13 13 13 13 13 13 12 12 12 11 11 11 11 10 10 10 9 9 9 9 8 8 7 7 7 7 6 6 6 6 6 6 6 5 5 4 4 4 3 3 3 3 2 2 2 2 1 1 1 1 1 1 1 1 1 1 1 1 0 0 0
7 8 9 10 10 11 12 12 12 12 12 12 12 12 13 13 13 13 13 13 13 13 13 13 13 13 13 13 13 13 12 12 11 11 10 10 10 10 9 9 9 9 9 8 8 7 7 6 6 6 6 6 5 5 5 5 5 4 4 3 3 3 3 2 2 2 2 1 1 1 1 0 0 0 0 0 -0 -0 -0 -0 -0 -0 -0 -0 -0
6 7 7 8 9 10 11 11 12 12 12 12 12 12 12 12 12 12 12 13 13 13 13 13 13 13 13 12 12 12 11 11 10 10 9 9 9 9 8 8 8 8 8 8 7 7 6 6 5 5 5 5 5 5 4 4 4 3 3 3 3 2 2 2 1 1 1 1 0 -0 -0 -0 -0 -0 -0 -1 -1 -0 -1 -1 -1 -1 -1 -1 -1
5 6 6 7 8 9 9 10 11 11 12 12 12 12 11 11 11 11 11 11 12 12 12 12 12 12 12 12 11 11 10 9 9 9 8 8 8 8 8 7 7 7 7 7 6 6 5 5 5 5 4 4 4 4 4 3 3 3 2 2 2 2 1 1 1 0 0 -0 -1 -1 -1 -1 -1 -0 -0 -1 -1 -1 -1 -2 -3 -2 -2 -2 -2
4 5 6 7 7 8 8 9 10 10 11 11 11 11 11 11 11 11 11 11 11 11 12 12 12 12 11 11 10 10 9 9 8 8 8 8 7 7 7 7 7 7 6 6 5 5 5 4 4 4 4 3 3 3 3 2 2 2 2 1 1 1 1 0 0 -0 -1 -1 -1 -1 -1 -1 -1 -1 -1 -2 -2 -2 -3 -3 -3 -3 -3 -3 -3
3 4 5 6 7 7 8 8 9 10 10 10 10 11 11 10 10 10 11 12 12 12 12 12 12 12 11 11 10 9 8 8 8 8 8 8 7 7 7 6 6 6 6 5 5 4 4 4 3 3 3 3 2 2 2 2 1 1 1 1 1 1 0 -0 -0 -1 -1 -1 -1 -2 -2 -2 -2 -3 -3 -3 -3 -3 -3 -3 -3 -3 -3 -3 -2
3 4 4 5 6 6 7 8 8 9 9 9 9 10 10 10 9 9 10 11 12 12 12 12 12 12 12 11 10 9 8 9 9 8 8 7 7 7 6 6 6 5 5 5 4 4 3 3 3 3 2 2 2 2 1 1 1 1 1 1 0 0 -0 -1 -1 -1 -1 -1 -2 -3 -3 -3 -3 -3 -3 -3 -3 -3 -3 -3 -3 -3 -3 -3 -2
2 3 3 4 5 5 6 7 8 8 9 9 8 8 8 8 9 9 9 10 10 10 11 11 11 12 12 11 10 10 9 9 9 8 7 7 6 6 6 6 5 5 5 4 4 4 3 3 2 2 2 2 2 1 1 1 0 0 0 -0 -0 -1 -1 -1 -1 -1 -1 -2 -2 -3 -3 -3 -3 -3 -3 -3 -3 -3 -3 -3 -3 -3 -3 -3 -2
2 2 2 3 4 4 5 6 7 7 8 8 8 7 7 6 7 8 9 9 9 9 10 10 10 11 11 11 10 9 9 9 8 7 7 6 6 6 5 5 5 5 4 4 4 3 3 3 2 2 1 1 1 0 0 0 0 -0 -0 -0 -0 -1 -1 -1 -1 -1 -1 -2 -2 -2 -3 -3 -3 -3 -3 -3 -3 -3 -3 -3 -3 -2 -2 -2 -2
1 1 2 2 3 4 4 5 6 6 7 8 8 8 7 6 6 7 8 9 9 9 9 9 10 10 10 10 9 9 8 8 8 7 6 6 5 5 5 5 4 4 4 4 3 3 2 2 2 1 1 1 0 0 0 -0 -0 -1 -1 -1 -0 -0 -1 -1 -1 -1 -1 -2 -2 -2 -3 -3 -3 -3 -3 -3 -3 -3 -3 -3 -2 -2 -2 -2 -2
-0 0 1 1 2 3 3 4 5 5 6 7 7 7 7 7 7 6 7 7 8 8 8 8 9 9 9 9 9 9 8 8 7 6 6 5 5 5 4 4 4 3 3 3 3 2 2 1 1 1 0 0 0 -0 -0 -0 -0 -1 -1 -1 -1 -0 -0 -0 -1 -1 -1 -2 -2 -3 -3 -3 -3 -3 -3 -3 -3 -3 -3 -3 -2 -2 -2 -2 -2
-0 -0 0 1 1 2 2 3 4 5 5 6 6 7 7 7 7 6 6 6 6 6 7 7 8 8 7 7 8 8 8 7 7 6 5 5 5 5 4 3 3 3 3 3 3 2 1 1 1 0 0 -0 -0 -0 -0 -1 -1 -1 -1 -0 -0 -0 -0 0 -0 -0 -1 -1 -2 -2 -3 -3 -3 -3 -3 -3 -3 -3 -3 -3 -2 -2 -2 -2 -2
-1 -1 -0 -0 0 1 2 2 3 4 4 5 6 6 7 7 7 6 7 7 6 6 6 6 7 7 7 7 7 7 7 7 6 5 5 4 4 4 4 3 3 3 3 2 2 2 1 1 0 -0 -0 -0 -0 -0 -0 -1 -1 -1 -0 -0 -0 -0 -0 0 0 -0 -0 -1 -1 -2 -2 -2 -3 -3 -3 -3 -3 -3 -3 -3 -3 -2 -2 -2 -2
-0 -0 -0 -0 -0 0 1 2 2 3 4 5 5 5 6 6 6 6 6 6 5 5 5 5 5 5 5 6 6 6 6 6 5 5 5 4 4 4 4 3 3 2 2 2 1 1 1 0 -0 -0 -0 -0 -0 -0 -1 -1 -0 -0 -0 -1 -0 -0 0 0 0 0 -0 -1 -1 -2 -2 -2 -3 -3 -3 -3 -3 -3 -3 -3 -3 -3 -3 -2 -2
-0 -0 -0 -0 -0 0 1 1 2 3 3 4 5 5 5 5 5 5 5 5 5 5 4 4 5 5 4 4 5 5 5 5 5 4 4 4 4 4 4 3 3 2 2 1 1 1 0 -0 -0 -0 -0 -0 -0 -1 -1 -0 -0 -0 -0 -1 -0 0 0 0 0 0 -0 -1 -1 -2 -3 -3 -3 -3 -3 -3 -3 -3 -3 -3 -3 -3 -2 -2 -2
0 0 0 -0 -0 -0 0 1 1 2 3 3 4 5 5 4 4 4 4 4 4 4 4 4 5 5 4 3 4 4 4 4 3 3 3 3 3 3 4 3 3 2 2 1 1 0 -0 -0 -0 -0 -0 -0 -1 -1 -0 -0 -0 -0 -0 -0 0 0 0 0 0 0 -0 -1 -2 -3 -3 -2 -2 -3 -3 -3 -3 -3 -3 -3 -3 -3 -2 -2 -2
1 1 1 0 0 0 0 1 1 1 2 2 3 4 4 4 3 3 3 3 3 3 3 4 4 5 4 3 3 3 3 3 3 3 3 3 3 3 3 3 2 2 1 1 0 -0 -0 -0 -0 -0 -1 -1 -1 -1 -0 -0 -0 -0 -0 0 0 1 0 0 0 -0 -1 -2 -2 -2 -2 -2 -2 -3 -3 -3 -3 -3 -3 -3 -3 -2 -2 -2 -2
1 1 1 1 1 0 0 1 1 1 1 2 3 4 4 3 3 3 3 3 3 3 3 4 4 4 4 4 3 3 3 3 3 3 3 3 3 3 3 2 2 1 1 0 -0 -0 -0 -0 -0 -1 -1 -1 -1 -0 -0 -0 -0 0 0 0 0 1 0 0 -0 -1 -2 -2 -2 -2 -2 -2 -2 -2 -3 -3 -3 -3 -3 -3 -2 -2 -2 -2 -2
1 1 1 1 1 1 0 0 1 1 1 1 2 3 3 3 3 3 3 3 4 3 3 4 4 4 4 3 3 3 4 3 3 3 3 3 3 3 2 2 2 1 0 0 -0 -0 -1 -1 -1 -1 -1 -1 -0 -0 -0 -0 0 0 0 1 0 0 0 0 -0 -1 -2 -2 -2 -2 -2 -2 -2 -3 -3 -3 -3 -3 -3 -2 -2 -2 -2 -2 -2
1 1 1 1 1 1 0 1 1 1 1 1 2 2 3 3 2 2 1 2 2 2 2 2 3 3 3 2 3 3 4 4 3 3 3 3 3 2 2 1 1 1 0 -0 -1 -1 -1 -1 -1 -1 -1 -1 -0 -0 -0 0 0 0 0 1 0 0 0 0 -0 -1 -1 -2 -2 -2 -2 -2 -2 -2 -3 -3 -3 -3 -2 -2 -2 -2 -2 -2 -2
1 1 1 1 0 0 0 1 1 1 1 1 1 2 2 2 2 1 1 0 -0 1 2 2 1 1 2 2 2 3 4 3 3 3 3 2 2 2 1 1 1 0 -0 -0 -1 -1 -1 -1 -1 -1 -1 -0 -0 -0 -0 0 0 0 0 1 0 0 0 0 -0 -1 -1 -2 -2 -2 -2 -2 -2 -2 -2 -2 -3 -3 -2 -2 -2 -2 -2 -2 -2
1 0 0 0 0 0 0 1 1 1 1 1 1 1 2 2 1 1 1 0 -1 -0 1 1 1 1 1 2 2 3 3 3 3 3 2 2 2 1 1 1 0 -0 -0 -1 -1 -1 -1 -1 -1 -1 -0 -0 -0 -0 0 0 0 0 0 0 0 0 0 0 -0 -1 -1 -1 -2 -2 -2 -2 -2 -2 -2 -2 -2 -3 -3 -2 -2 -2 -2 -2 -2
0 0 0 0 0 0 1 1 1 1 0 1 1 0 1 1 1 1 1 1 -0 -0 1 1 1 1 1 2 2 2 3 3 2 2 2 2 1 1 1 0 -0 -0 -1 -1 -1 -1 -1 -1 -1 -1 -0 -0 -0 0 0 1 0 0 0 0 0 0 0 0 -0 -0 -1 -1 -1 -1 -2 -2 -2 -2 -2 -2 -3 -3 -3 -2 -2 -2 -2 -2 -2
0 0 0 0 0 0 0 0 0 0 0 0 0 0 0 1 1 1 1 1 0 0 1 1 1 1 1 1 2 2 2 2 2 2 2 1 1 1 0 -0 -0 -1 -1 -1 -1 -1 -1 -1 -1 -1 -0 -0 0 0 1 1 0 0 0 0 0 0 0 0 -0 -0 -0 -1 -1 -1 -1 -2 -2 -2 -2 -2 -3 -3 -3 -2 -2 -2 -2 -2 -2
0 0 0 0 -0 -0 0 -0 0 0 0 0 0 0 0 0 1 0 1 1 1 1 1 1 1 1 1 2 2 2 2 2 2 1 1 1 0 0 -0 -0 -1 -1 -2 -2 -2 -2 -2 -1 -1 -1 -0 -0 0 0 1 1 0 0 0 0 0 0 0 0 0 0 -0 -0 -1 -1 -1 -1 -2 -2 -2 -2 -3 -3 -3 -2 -2 -2 -2 -2 -2
1 0 0 0 -0 -0 -0 -0 -0 -0 -0 -0 -0 -0 0 0 0 0 1 1 1 1 1 1 1 1 2 2 2 2 2 1 1 1 0 0 -0 -0 -1 -1 -1 -2 -2 -2 -2 -2 -2 -1 -1 -1 -0 -0 0 0 1 1 1 1 1 0 0 0 0 0 0 0 0 0 -0 -1 -1 -1 -1 -1 -1 -2 -2 -3 -3 -3 -2 -2 -2 -2 -2
1 1 1 0 0 0 -0 -0 -0 -0 -0 0 0 -0 0 1 1 1 1 1 1 1 1 1 1 2 2 2 1 1 1 1 0 0 -0 -1 -1 -1 -1 -1 -2 -3 -3 -3 -2 -2 -2 -1 -1 -1 -0 -0 0 0 1 1 1 1 1 1 0 0 0 0 0 1 0 0 -0 -1 -1 -1 -1 -1 -1 -1 -2 -2 -3 -3 -2 -2 -2 -2 -2
2 2 1 1 1 1 1 0 0 0 1 1 1 0 1 1 1 0 1 1 1 1 1 1 1 1 1 1 1 0 0 0 -0 -1 -1 -1 -1 -1 -2 -2 -3 -3 -3 -3 -3 -2 -2 -1 -1 -1 -0 -0 0 0 1 1 1 1 1 1 0 0 0 0 1 1 1 0 -0 -0 -1 -1 -1 -1 -1 -1 -1 -2 -2 -3 -3 -2 -2 -2 -2
2 2 2 1 1 1 1 1 1 1 1 1 1 0 0 0 -0 -0 -0 0 0 0 0 0 1 1 0 0 0 -0 -0 -0 -1 -1 -1 -1 -2 -2 -2 -3 -4 -4 -4 -3 -3 -2 -2 -2 -1 -1 -0 -0 0 0 1 1 1 1 1 1 1 0 0 0 1 1 1 0 0 -0 -1 -1 -1 -1 -1 -1 -1 -1 -2 -2 -2 -2 -2 -2 -2
Height
796 796 797 801 806 811 816 819 818 818 818 818 819 820 821 823 825 827 829 830 832 833 834 835 836 837 838 839 840 840 841 841 842 842 842 843 843 843 844 844 844 844 844 844 844 845 845 845 846 847 848 849 849 850 850 850 851 851 851 851 852 852 853 854 855 856 857 857 857 856 855 854 853 852 852 851 850 850 849 848 847 846 845 845 844
796 797 799 802 807 812 815 816 816 817 817 817 818 819 821 822 824 826 828 830 831 832 833 835 836 837 837 838 840 840 841 842 842 843 843 844 844 844 845 845 845 846 846 846 847 847 847 847 847 848 848 849 850 850 851 851 851 851 851 852 852 852 853 853 854 856 857 857 856 856 855 853 853 852 851 851 850 850 849 848 848 847 847 846 845
796 798 800 803 807 811 812 812 813 815 817 818 818 818 820 822 823 825 827 828 830 831 833 834 835 836 837 838 839 840 841 842 843 843 843 844 845 845 845 846 846 846 846 847 847 848 848 848 848 849 849 849 850 850 851 851 851 851 852 852 852 852 853 853 853 854 855 856 855 855 854 853 852 852 851 851 850 850 849 848 848 848 847 846 845
798 799 802 804 808 810 811 811 812 815 817 819 819 818 819 821 822 824 826 827 829 830 832 834 835 835 836 837 838 839 840 842 843 844 844 845 845 845 845 846 846 846 846 847 847 848 848 849 849 849 849 850 850 850 851 851 851 851 852 852 852 852 853 853 853 853 854 854 854 854 853 853 852 851 851 850 850 849 849 848 847 847 847 846 845
799 801 803 805 808 810 810 810 813 815 816 817 818 818 817 819 820 823 825 826 827 829 831 832 834 835 836 837 838 839 840 841 842 843 844 845 845 846 846 846 846 846 846 846 847 847 848 848 849 849 849 849 849 850 850 850 851 851 852 852 852 852 853 852 852 853 853 853 853 853 853 852 852 851 850 849 848 848 847 847 846 846 845 845 845
800 802 804 806 808 809 809 810 812 814 814 814 815 816 815 816 818 821 824 826 827 829 830 831 833 834 836 837 838 839 840 841 841 841 843 844 845 846 846 846 845 845 845 846 846 846 847 847 848 848 848 848 848 849 849 850 850 851 851 852 852 852 852 852 852 852 852 852 853 853 852 852 851 850 849 848 847 846 845 844 844 844 843 843 843
799 801 803 805 806 807 807 809 810 811 813 813 814 815 815 815 816 819 822 824 825 827 829 830 831 833 835 836 838 840 841 841 841 841 842 843 844 845 845 845 845 845 845 845 845 845 846 846 846 847 847 847 847 847 848 848 849 849 850 850 851 851 851 851 851 852 852 852 852 852 851 851 850 850 849 848 847 846 844 842 841 841 841 841 841
798 800 801 802 804 804 806 807 808 809 810 811 812 813 814 814 816 819 820 822 823 824 826 828 830 832 835 837 839 840 840 840 840 841 841 842 843 843 844 844 844 844 844 844 844 844 844 844 844 845 845 846 846 846 846 847 848 848 848 848 849 849 850 850 850 851 851 850 851 851 850 850 850 849 848 847 846 846 845 844 843 841 840 839 839
797 798 799 801 802 802 803 805 806 807 807 807 809 810 810 811 815 819 821 821 822 822 824 827 830 832 835 837 839 839 838 838 838 839 840 841 841 841 842 842 842 842 842 842 842 842 842 842 842 842 843 843 844 845 845 846 846 846 846 847 847 847 848 848 849 849 849 849 849 850 850 849 849 848 847 847 846 846 846 846 845 843 841 839 838
797 797 798 799 799 800 800 801 802 803 803 804 806 807 808 809 811 815 818 819 819 819 822 826 829 830 832 836 837 836 836 836 837 838 839 840 840 840 840 840 839 839 839 839 839 839 839 840 839 840 840 841 842 843 843 844 844 845 845 845 846 846 846 847 847 848 848 848 848 849 849 849 848 848 847 847 847 847 846 845 844 843 841 838 837
797 797 797 798 798 798 799 799 800 800 800 801 802 804 807 808 808 811 814 816 817 817 819 822 825 826 829 832 834 833 834 835 836 837 838 838 838 838 838 838 837 837 837 837 836 837 837 837 837 837 837 838 839 840 841 842 842 843 844 844 844 845 845 845 846 846 847 847 847 847 847 848 848 847 847 847 846 846 845 844 843 842 841 840 838
797 798 798 798 798 798 799 799 800 800 801 803 804 806 807 807 807 809 811 812 814 816 817 818 821 824 827 829 830 831 833 834 835 836 837 837 836 836 836 836 835 835 835 834 834 834 834 834 834 834 835 835 836 837 838 840 841 842 842 843 843 844 844 844 844 845 845 846 845 846 846 847 847 847 846 846 845 845 844 843 843 842 841 841 839
797 798 798 798 798 798 798 799 799 800 801 802 804 807 808 806 806 808 809 811 813 814 815 817 819 822 824 826 828 830 832 833 835 835 835 835 835 834 833 833 833 833 833 832 832 831 831 831 831 832 832 832 833 834 836 838 839 840 841 842 842 843 843 843 843 844 844 844 844 844 845 845 846 846 845 845 844 844 843 842 841 841 840 839 837
798 798 798 797 797 798 799 799 799 800 800 799 800 803 805 805 806 807 809 810 811 812 814 816 818 820 822 824 826 829 831 832 833 834 834 833 833 832 832 831 831 831 831 830 830 830 829 829 829 830 830 831 831 832 834 836 838 839 840 840 841 842 842 842 842 842 843 843 843 843 843 844 844 844 844 844 843 843 842 841 840 839 838 837 835
801 800 799 798 797 797 798 798 798 799 799 798 799 801 803 804 805 807 808 809 810 811 813 814 816 818 820 823 825 827 829 831 831 832 832 832 832 831 831 830 830 829 829 829 829 828 828 829 829 829 830 830 830 831 833 835 837 838 839 839 840 841 841 841 841 841 841 842 842 842 842 842 843 843 842 842 841 841 840 839 838 837 836 834 833
802 802 800 799 798 797 797 797 797 798 798 798 799 800 801 802 803 805 806 807 809 810 812 814 815 817 819 821 824 826 828 829 830 830 831 831 831 830 830 829 829 828 828 828 828 828 828 828 829 829 830 830 831 832 834 835 836 837 838 839 839 840 840 840 840 840 840 841 841 841 841 841 841 842 841 840 840 839 838 837 837 836 834 832 830
803 803 801 800 799 798 797 797 796 797 797 798 799 800 800 801 802 803 805 806 807 809 811 812 814 816 818 820 823 825 826 827 828 829 830 830 830 829 829 829 829 829 828 828 828 828 828 828 829 829 830 831 832 833 834 835 836 837 837 838 838 839 839 839 839 840 840 840 840 840 840 840 840 840 840 839 838 837 836 835 835 834 832 830 828
804 804 802 801 800 799 798 798 797 797 797 798 799 800 800 801 801 802 803 805 806 808 810 812 813 816 818 820 822 824 825 826 827 828 829 829 829 829 829 829 829 829 829 829 829 829 829 829 829 829 830 831 832 833 834 835 835 836 836 837 837 838 838 839 839 839 839 839 840 839 839 839 839 839 838 838 837 836 835 834 833 832 830 829 826
805 804 803 803 802 801 800 800 800 799 799 799 800 801 802 802 802 803 804 805 806 808 809 811 813 815 818 819 821 823 824 826 826 827 827 827 828 828 828 829 829 829 829 829 829 829 829 829 830 830 831 831 832 833 834 834 835 836 836 837 837 838 838 838 838 839 839 839 839 838 838 838 837 837 837 836 835 835 834 833 832 830 829 827 825
805 804 804 803 803 802 801 800 800 801 800 801 801 802 803 804 804 805 805 806 807 808 810 811 813 815 817 819 821 822 824 825 825 825 826 826 826 827 828 828 828 828 829 829 829 829 829 830 831 831 831 832 832 833 834 834 835 836 836 837 837 837 838 838 838 838 838 837 837 837 836 836 836 835 834 834 833 833 832 831 830 829 827 825 824
804 803 803 803 803 802 801 800 800 800 801 802 802 803 803 803 804 805 806 807 808 809 810 811 813 815 816 818 819 821 821 822 823 823 824 824 825 826 827 827 828 828 828 829 829 829 830 830 831 832 832 833 833 833 834 834 835 835 836 836 837 837 837 837 837 837 836 836 835 835 835 834 833 833 832 831 830 830 829 828 827 826 825 823 821
804 802 802 802 802 801 801 800 800 799 799 800 802 802 803 803 803 804 805 806 807 809 810 811 811 813 814 816 817 818 819 819 820 821 822 824 825 825 826 827 828 828 828 828 829 830 830 831 832 832 832 833 833 833 834 834 834 835 835 836 836 836 836 836 835 835 834 834 834 833 832 832 831 830 829 828 827 826 825 825 824 823 822 820 819
803 801 800 800 800 800 799 799 799 799 799 799 800 800 801 802 802 803 804 805 806 807 808 809 809 810 812 813 814 816 817 818 819 821 822 823 824 825 826 827 827 828 828 828 829 830 830 831 832 832 833 833 833 833 833 833 834 834 834 835 835 835 835 834 834 834 833 833 832 831 830 830 828 827 826 825 824 823 822 821 819 818 817 816 815
801 800 799 798 797 797 797 797 797 797 797 798 798 799 799 800 800 801 802 804 805 806 806 807 807 809 810 812 813 815 816 818 819 821 822 823 824 825 826 827 827 827 828 828 828 829 830 831 832 832 832 832 833 833 833 833 833 833 834 834 834 834 834 833 833 832 832 831 830 829 828 827 826 825 823 822 821 819 818 817 815 814 812 811 810
798 798 797 796 795 795 795 794 794 795 795 796 796 797 798 799 799 799 800 801 802 803 804 805 807 808 809 811 812 814 815 817 819 820 821 823 824 825 826 827 827 827 827 828 828 829 830 831 831 832 832 832 832 833 833 833 833 833 833 833 833 833 832 832 832 831 830 830 828 827 826 825 824 822 820 819 817 816 814 812 811 810 808 807 806
795 795 794 794 794 793 792 792 791 792 793 793 793 794 795 796 797 798 799 800 801 802 803 805 806 807 808 810 811 813 814 816 818 819 820 822 823 824 825 826 826 826 827 827 828 829 830 831 831 832 832 832 832 832 832 832 832 832 832 832 832 832 831 831 830 830 829 828 827 825 824 822 821 819 817 816 814 812 811 810 808 807 806 804 802
793 792 791 791 791 791 790 790 789 789 789 790 790 791 792 793 795 796 797 798 800 801 801 802 804 805 806 808 809 811 813 814 816 817 819 820 821 822 824 824 825 826 826 827 828 829 830 831 831 832 832 832 832 832 832 832 832 832 832 832 831 831 831 830 829 829 828 826 825 823 822 820 818 816 815 813 812 810 809 808 807 805 804 802 800
791 790 789 788 788 788 788 788 787 786 786 786 787 788 789 791 792 793 794 794 795 796 797 798 800 802 804 805 807 809 811 812 814 815 816 818 820 821 822 823 824 825 825 826 827 829 830 831 831 832 832 832 832 832 832 832 832 832 831 831 831 830 830 829 828 827 826 825 823 821 819 817 816 814 813 812 810 809 808 806 805 803 802 800 798
787 786 786 786 785 785 786 786 785 784 783 783 784 785 786 787 789 791 792 792 793 794 795 796 798 799 801 803 805 807 808 809 811 813 815 817 818 820 821 822 823 824 825 825 827 828 829 830 831 831 832 832 832 832 832 832 832 831 831 830 830 829 829 828 827 826 824 823 821 819 817 816 814 813 812 810 809 807 806 804 803 801 800 798 796
783 782 782 782 782 783 783 783 783 783 782 781 781 782 783 784 785 787 789 791 792 794 795 796 798 798 799 800 802 804 805 807 808 811 813 815 817 819 820 821 822 823 824 825 826 827 828 830 831 831 831 831 832 832 832 832 831 831 830 830 829 828 828 826 825 824 822 820 819 817 815 814 813 811 810 808 806 805 803 802 801 799 797 795 793
779 778 778 779 779 780 780 781 781 781 781 781 781 781 782 782 782 783 786 787 789 791 793 795 797 797 797 798 800 802 804 805 806 809 811 814 816 817 819 820 821 822 823 824 825 827 828 829 830 831 831 831 831 831 831 831 831 830 830 829 828 827 826 825 823 821 820 818 816 815 813 812 811 809 808 806 804 802 801 799 798 796 795 793 791
775 774 774 775 776 776 777 778 779 779 779 780 780 780 781 781 781 782 783 785 786 788 791 794 795 795 796 797 799 800 802 803 804 807 810 812 814 816 818 819 820 821 823 824 825 826 828 828 829 830 831 831 831 831 831 830 830 829 829 828 827 826 824 822 821 819 818 816 814 813 811 810 809 807 805 803 802 800 798 796 794 793 791 790 787
770 769 770 771 772 773 774 774 775 776 777 777 778 778 779 780 781 782 783 784 785 786 789 791 793 794 795 797 798 798 799 801 803 806 808 810 813 815 817 819 820 821 822 823 825 826 827 828 829 830 830 830 830 830 830 830 829 828 827 826 825 824 822 821 819 817 816 814 813 811 809 808 806 804 802 801 799 797 795 793 791 790 788 786 784
765 765 766 767 768 768 769 770 772 773 774 775 776 776 777 779 780 781 783 783 784 785 787 789 791 793 795 796 797 797 798 800 802 805 807 810 812 814 816 818 820 821 822 823 824 825 827 828 828 829 829 830 829 829 829 829 828 827 826 825 824 822 820 819 817 815 814 812 811 809 807 805 804 802 800 798 796 794 793 791 789 787 786 783 781
760 760 761 762 763 764 765 766 768 770 771 772 773 774 775 777 778 780 782 782 781 782 785 788 790 793 794 795 795 796 797 799 802 804 807 809 811 813 815 817 819 821 822 823 824 825 826 827 828 828 829 829 829 829 828 828 827 826 825 824 822 820 818 817 815 814 812 810 809 807 805 803 802 800 798 796 794 792 791 789 787 785 783 781 779
755 755 756 757 759 759 761 763 764 766 768 769 770 771 772 774 776 778 780 781 781 782 784 786 788 791 793 794 795 796 798 800 802 804 807 809 811 812 814 816 818 820 821 822 823 824 825 826 827 828 828 828 828 828 828 827 826 825 824 822 821 819 817 815 814 812 811 809 807 805 803 802 800 798 796 794 793 791 789 787 785 782 780 779 777
749 750 751 752 753 755 757 759 760 763 765 766 768 769 770 772 773 775 777 779 781 782 783 784 786 788 791 793 795 797 798 800 803 805 807 809 811 812 814 815 817 819 821 822 823 824 825 826 827 827 827 828 828 827 827 826 825 824 823 821 819 817 816 814 813 811 809 808 806 804 802 800 798 797 795 793 791 789 787 785 782 780 778 776 774
744 744 746 747 749 751 753 755 757 759 761 763 765 766 767 769 771 773 775 777 779 780 780 781 783 785 788 792 795 797 798 801 803 806 808 809 811 813 814 816 817 819 820 821 822 823 825 825 826 827 827 827 827 827 826 825 824 823 821 820 818 816 815 813 812 810 808 806 805 803 801 799 797 795 793 791 789 787 785 783 780 778 776 774 772
739 739 741 743 745 747 749 751 753 755 757 760 762 764 765 767 768 770 773 775 778 779 779 780 782 784 787 790 793 795 798 800 802 805 807 809 811 813 814 816 818 819 820 821 822 823 824 825 826 826 827 827 827 826 825 824 823 822 820 818 817 815 813 812 810 808 807 805 803 801 799 797 795 793 791 789 787 785 783 781 778 776 774 771 769
734 735 736 738 741 743 745 748 750 752 754 756 758 761 762 764 766 768 770 772 775 777 778 778 781 784 786 789 791 793 796 799 802 804 806 808 811 813 815 817 818 819 820 821 822 823 824 824 825 826 826 826 826 825 824 824 822 820 819 817 816 814 812 810 809 807 806 804 802 800 798 796 794 792 789 787 785 783 781 779 776 774 771 769 766
731 731 733 735 737 740 743 745 747 749 751 754 756 758 760 762 764 767 768 770 772 774 776 777 780 783 786 788 791 793 796 799 802 805 807 809 811 813 815 817 818 819 820 821 822 823 824 824 825 825 825 825 825 824 824 823 821 819 818 816 815 813 811 810 808 807 805 803 801 799 797 795 793 791 788 786 784 781 779 776 774 771 769 766 764
728 729 731 733 736 738 741 743 746 748 750 752 754 756 758 761 763 766 769 771 772 773 774 777 780 784 787 790 792 794 797 799 803 805 807 810 812 814 816 817 818 819 820 821 822 823 823 824 825 825 825 825 825 824 823 821 820 818 817 815 813 812 810 809 808 806 804 802 800 798 796 794 791 789 787 784 782 779 777 774 772 769 767 764 762
729 730 731 733 735 738 740 743 745 747 750 752 754 756 758 760 763 766 769 772 773 773 773 776 781 785 788 791 793 795 798 801 803 806 808 810 812 814 816 817 818 819 820 821 822 822 823 823 824 824 824 824 824 823 822 821 819 818 816 814 812 811 809 808 807 805 803 801 799 796 794 792 790 788 785 783 780 778 775 773 770 767 765 763 760
733 734 734 735 737 739 742 744 746 748 750 752 754 757 759 761 764 766 768 772 776 776 774 776 782 786 788 791 794 797 799 802 804 807 809 811 813 814 816 817 818 819 820 821 821 822 822 823 823 823 824 824 823 822 821 820 818 817 815 813 812 810 809 808 806 804 802 800 798 796 793 791 789 786 784 782 779 777 774 771 769 766 764 761 759
738 738 739 739 740 742 744 745 747 748 751 753 755 758 760 762 765 768 769 772 777 778 777 778 783 787 789 792 795 798 801 803 805 807 809 811 813 814 816 817 818 819 820 821 821 822 822 822 823 823 823 823 823 822 821 820 818 816 814 813 811 810 808 807 805 803 801 799 797 795 793 790 788 786 783 781 778 776 773 770 768 765 763 760 758
744 743 743 744 745 745 747 748 749 751 753 754 756 759 761 764 767 770 772 774 777 779 780 782 785 788 791 794 797 799 802 804 806 808 810 812 813 815 816 817 818 819 820 820 821 821 821 822 822 822 823 823 822 822 820 819 818 816 814 812 811 809 808 806 805 803 801 799 797 795 792 790 787 785 783 780 778 775 772 769 767 764 762 760 757
749 748 748 748 749 750 751 752 753 754 756 757 759 761 763 765 768 772 774 776 778 780 782 784 787 791 794 796 798 800 802 804 806 809 810 812 813 815 816 817 818 818 819 820 820 820 821 821 821 822 822 822 822 821 820 818 817 815 814 812 810 809 807 806 804 802 801 799 797 794 792 790 787 784 782 779 777 774 772 769 766 764 761 759 757
754 754 753 753 754 754 755 756 757 758 759 761 762 764 766 768 771 774 776 778 780 782 784 787 790 793 795 797 799 801 803 805 807 809 810 812 813 815 816 817 817 818 818 819 819 820 820 820 821 821 821 821 821 820 819 818 817 815 813 812 810 808 807 805 804 802 800 798 797 794 792 790 787 784 781 779 776 774 771 769 766 764 761 759 757
759 759 759 759 759 759 760 760 761 762 763 765 766 768 770 772 774 776 779 781 783 785 787 789 792 794 796 798 800 802 804 806 808 809 811 812 814 815 815 816 816 817 818 818 819 819 819 820 820 821 821 820 820 819 818 817 816 814 813 811 809 808 807 805 803 802 800 798 796 794 792 789 787 784 781 779 776 774 771 769 766 764 761 759 757
764 764 764 764 764 765 765 765 766 767 768 769 770 772 773 775 777 780 782 783 785 788 789 791 793 795 797 799 801 803 805 806 808 810 811 812 814 814 815 816 816 816 817 818 818 819 819 819 819 820 820 819 819 818 817 816 815 814 812 811 809 807 806 804 803 801 800 798 796 794 792 789 787 784 782 779 777 774 772 769 767 764 762 760 757
769 768 768 768 769 769 770 770 770 771 772 773 774 776 777 779 781 782 784 786 788 790 791 793 795 797 798 800 802 804 806 807 809 810 811 813 814 814 815 815 815 816 817 817 818 818 818 818 819 819 819 819 818 817 816 815 814 813 812 810 809 807 805 803 802 801 799 797 796 794 791 789 787 784 782 780 777 775 772 770 767 765 763 760 758
Wind_Speed
29 32 32 30 29 29 23 23 26 26 25 23 21 22 23 19 16 14 12 14 14 13 14 13 12 12 11 10 10 10 9 8 8 7 6 6 6 6 7 6 6 7 8 9 9 10 10 10 11 10 9 8 7 6 6 6 7 8 8 8 9 9 9 9 8 5 6 8 11 13 13 13 16 19 18 18 17 16 15 15 14 14 15 15 13
30 31 32 30 29 29 24 25 31 31 28 27 24 23 23 22 20 17 14 14 15 15 15 14 13 12 13 12 11 11 11 10 8 8 7 6 5 5 5 5 4 4 5 6 6 7 7 7 8 8 8 7 6 5 4 4 4 6 6 6 7 8 8 9 9 7 7 8 10 13 13 14 17 19 19 19 18 18 17 17 17 17 17 16 14
30 30 32 31 30 31 27 26 33 33 27 26 25 24 24 24 23 21 18 16 17 17 16 15 15 13 13 14 13 12 11 11 10 9 8 7 6 6 5 5 5 4 4 4 5 5 5 5 5 6 6 5 4 3 3 3 2 3 4 4 5 7 7 9 9 9 9 9 10 13 14 15 17 19 19 19 18 19 19 20 20 20 20 20 18
27 28 30 30 30 34 33 29 31 29 22 22 24 24 24 24 24 23 22 21 20 20 19 17 17 16 14 14 14 13 12 11 10 11 11 10 9 8 7 6 6 6 5 5 5 6 6 5 5 5 5 4 4 3 2 2 1 1 2 3 4 5 6 8 10 10 10 9 10 12 14 14 16 18 19 19 18 19 21 21 22 23 23 23 22
25 26 28 28 27 31 35 33 28 24 22 24 25 24 23 23 24 24 23 22 20 20 20 19 18 16 15 14 14 13 12 11 11 12 14 14 13 11 10 9 8 8 8 8 7 8 8 8 7 7 7 6 6 6 5 4 3 2 1 1 2 4 5 7 9 10 11 10 9 10 13 14 15 17 19 20 20 21 23 22 23 25 26 26 25
22 25 26 25 24 26 30 30 25 22 24 26 25 23 22 22 23 24 23 22 19 17 16 16 14 12 11 12 12 11 11 11 12 13 14 16 16 14 13 12 11 11 10 11 10 10 11 11 10 10 10 9 9 8 8 7 6 4 3 2 1 1 3 5 8 9 10 9 8 10 12 14 15 17 18 20 21 23 26 25 25 27 28 29 28
21 24 26 25 24 24 25 25 23 20 22 25 23 21 21 21 22 23 23 22 20 18 16 14 13 9 7 8 10 11 13 14 15 14 14 17 18 18 16 15 14 13 13 13 13 13 13 13 14 14 14 12 11 11 10 9 8 6 5 4 3 1 1 3 6 7 8 7 8 10 11 13 14 15 16 18 19 22 26 27 29 30 31 31 29
17 20 22 23 24 24 23 22 21 19 20 23 23 21 20 19 18 19 20 20 19 19 17 13 13 10 8 7 10 15 18 17 17 17 17 18 18 18 17 17 15 15 16 16 16 16 16 16 17 17 18 17 15 14 13 12 10 9 8 6 4 3 1 2 4 6 6 6 7 9 10 12 14 15 16 18 19 20 22 23 25 29 31 32 29
11 15 18 20 21 22 21 21 20 19 18 20 22 22 21 19 16 15 18 19 20 19 14 9 12 12 8 8 12 17 20 19 17 16 16 16 15 14 15 15 16 16 16 17 17 18 19 19 20 21 21 21 19 18 16 14 13 12 11 9 7 5 3 0 4 5 5 5 5 7 10 12 13 14 16 17 16 17 17 18 20 23 28 31 29
6 10 13 16 18 20 20 20 21 21 21 22 24 24 22 20 19 18 21 22 23 21 16 15 18 17 13 13 17 21 23 23 19 16 14 13 12 11 11 12 13 14 14 15 17 18 19 20 21 22 23 23 23 21 20 17 15 13 11 9 8 7 5 2 3 4 4 4 4 6 9 10 10 11 12 13 13 14 16 17 19 21 25 28 28
5 8 11 13 15 17 19 20 22 24 25 26 27 26 24 23 22 22 25 25 24 22 21 24 26 24 21 22 26 27 27 25 20 16 14 11 8 7 7 8 9 10 12 13 15 16 17 17 19 20 22 23 24 24 23 20 17 15 12 9 9 8 5 3 2 3 4 4 4 5 7 8 9 8 9 11 12 13 14 16 17 19 21 20 20
1 6 10 12 13 15 18 19 20 21 20 20 22 23 22 22 23 25 28 27 23 21 22 25 26 26 27 27 27 27 25 20 16 12 8 4 4 4 5 6 7 9 11 12 14 15 16 16 17 17 19 21 23 23 23 21 18 16 13 10 9 7 6 4 4 4 5 6 6 6 6 7 8 8 9 11 12 13 15 16 17 18 18 16 16
5 3 7 10 10 11 14 17 18 19 20 20 20 20 20 21 25 28 27 25 21 19 21 24 25 25 26 26 25 23 18 14 10 6 3 2 5 6 5 5 5 5 6 8 10 12 13 14 14 15 16 17 19 21 22 21 19 15 12 10 9 8 6 5 5 5 6 7 7 6 7 7 7 8 9 10 12 14 16 18 18 18 18 17 18
13 8 5 9 11 9 10 14 16 18 20 21 21 22 23 23 24 25 23 20 18 17 19 21 22 23 22 22 21 19 15 11 8 5 0 5 6 6 5 5 6 6 6 6 6 6 8 9 10 11 12 13 15 16 19 21 19 15 12 11 10 8 7 6 6 6 7 8 8 7 7 7 7 8 8 9 11 13 15 17 18 18 19 19 19
20 17 13 8 7 8 10 13 14 16 18 18 20 22 23 22 21 21 20 19 18 17 18 19 19 19 18 17 16 15 12 10 7 3 2 4 6 7 8 8 9 9 10 10 9 8 7 6 7 8 9 10 11 12 17 19 16 12 11 10 10 9 9 8 8 8 8 9 8 8 7 7 6 7 9 11 12 13 14 15 16 17 18 19 20
20 20 19 16 12 8 7 11 14 16 17 16 17 19 21 21 20 19 20 20 18 17 17 17 17 15 14 13 12 11 11 9 5 2 1 3 5 6 9 10 11 11 11 10 10 10 8 6 5 5 6 7 9 12 14 14 12 10 10 10 10 10 9 7 7 6 6 6 6 6 6 6 8 9 11 12 13 14 14 15 16 16 17 18 19
17 18 18 17 17 13 8 7 10 14 16 16 16 18 19 20 20 20 20 19 17 16 15 15 14 12 11 12 12 12 10 8 6 4 2 1 3 5 7 8 9 10 10 10 9 9 7 5 3 2 3 6 10 11 9 9 9 9 10 10 9 8 6 4 4 4 4 4 4 4 6 7 9 10 11 11 12 13 14 15 16 17 16 16 15
12 14 15 16 16 13 8 5 3 7 9 10 11 13 14 15 16 16 17 16 14 13 13 13 13 13 13 13 13 11 10 9 7 5 3 2 3 4 5 6 6 6 7 7 7 6 5 3 2 1 2 5 7 7 8 9 9 9 9 8 7 5 4 3 3 3 4 4 5 6 7 9 9 10 11 11 12 12 13 15 16 17 17 16 15
10 12 12 13 13 11 9 6 2 4 8 10 11 12 13 14 14 15 16 16 17 16 15 15 15 15 14 13 13 12 11 9 7 5 3 3 3 4 4 4 4 3 3 3 3 3 3 3 4 3 2 3 4 4 5 5 5 5 5 5 4 4 3 3 3 4 5 6 7 8 9 9 10 11 11 12 12 12 13 14 15 16 18 18 18
13 13 13 11 9 7 8 8 3 3 7 11 13 14 14 14 15 16 16 17 17 17 16 16 16 15 14 13 12 11 10 8 7 5 3 3 3 3 3 3 2 1 1 1 2 3 4 5 5 5 4 4 4 4 4 3 2 3 2 2 2 2 2 3 4 6 7 8 9 10 10 11 12 12 13 13 14 14 14 14 14 15 18 20 20
15 14 14 13 10 7 5 6 4 2 4 6 9 12 14 15 15 14 15 16 16 17 17 16 16 15 13 11 10 9 8 6 5 3 2 1 1 1 1 1 1 1 2 3 3 4 5 6 6 5 4 4 3 3 2 2 1 0 1 1 1 2 3 4 6 7 8 9 10 11 12 13 14 15 15 16 16 16 16 16 16 17 19 20 22
17 16 15 14 13 11 8 4 2 4 6 6 7 8 10 12 14 14 14 15 16 16 16 15 14 12 11 8 7 6 4 2 2 2 2 2 1 1 1 0 1 2 3 4 5 6 6 6 6 5 4 3 3 2 1 1 2 3 2 3 3 3 4 5 7 8 9 10 11 13 14 15 16 17 18 18 19 19 20 20 20 21 22 22 23
18 18 17 15 15 13 12 10 6 2 5 5 5 6 7 9 12 13 15 15 16 16 14 12 11 10 8 6 4 2 1 2 4 4 4 4 4 3 3 2 3 3 4 5 6 7 7 7 6 5 4 2 2 1 2 3 3 3 2 2 2 3 5 6 8 9 10 11 12 14 15 16 17 19 20 21 22 23 23 24 23 23 23 22 22
19 19 18 17 16 15 15 14 13 10 7 5 5 5 5 7 10 13 14 14 15 15 13 12 10 9 7 5 4 4 5 6 7 7 7 7 6 5 4 4 4 4 4 6 7 8 8 7 5 4 2 2 2 2 2 3 3 2 2 1 2 4 6 7 9 10 11 13 14 15 17 18 19 21 22 23 23 24 24 24 24 22 22 21 21
23 21 19 18 17 16 16 17 17 16 13 12 12 11 9 8 9 12 14 14 14 14 13 12 11 10 9 9 8 9 10 11 11 11 9 8 6 5 5 5 4 4 5 7 9 8 7 6 4 3 2 3 3 3 3 3 3 2 1 2 4 6 7 9 10 12 13 14 16 17 19 20 20 21 22 22 23 23 23 22 21 19 18 18 18
25 24 22 19 17 17 17 17 17 18 17 15 15 15 14 12 10 10 11 12 13 13 14 14 14 13 12 12 12 13 14 14 14 12 11 9 8 7 6 6 5 6 7 9 9 8 7 5 4 4 4 4 4 3 3 3 2 2 3 4 5 7 9 10 11 13 14 15 16 17 19 20 20 21 21 21 20 20 19 17 17 16 15 16 17
25 25 24 22 19 18 18 18 17 17 20 20 18 16 15 15 16 19 19 18 18 19 19 19 18 17 16 15 15 15 15 16 15 14 12 11 9 7 6 7 7 8 9 10 9 8 7 7 6 6 5 4 4 3 3 2 2 3 4 5 7 8 9 10 11 12 13 14 16 18 19 20 20 20 19 17 16 16 15 15 16 17 16 17 18
25 24 25 24 22 20 19 19 17 16 19 23 22 20 20 18 18 21 25 26 26 25 24 23 21 19 18 18 17 17 17 18 18 16 14 12 10 9 8 8 9 9 9 10 10 9 9 8 8 7 6 5 4 3 2 2 3 5 6 7 8 8 9 9 10 11 13 14 16 18 18 17 16 15 15 14 14 15 15 16 17 18 18 18 18
24 24 23 23 22 20 18 18 17 15 16 19 22 23 25 25 22 22 24 24 22 21 21 20 19 18 18 18 19 21 21 20 18 16 14 12 10 10 10 10 9 9 9 10 11 11 11 10 9 7 5 3 3 2 3 4 5 6 7 7 7 8 9 10 12 13 15 16 17 17 15 13 13 13 14 14 15 16 17 17 18 18 19 19 18
23 23 22 20 20 18 16 16 16 14 12 13 15 17 20 21 21 22 23 22 20 20 18 16 16 17 17 17 17 17 16 15 16 16 15 13 11 10 10 10 9 10 11 11 11 12 13 11 8 5 4 3 2 3 4 5 6 6 6 7 8 10 11 13 14 16 16 17 17 17 16 14 13 14 14 16 16 17 17 18 18 19 19 19 19
23 24 23 21 20 18 16 14 13 12 10 9 10 11 13 13 15 19 21 21 20 19 16 14 15 16 16 17 18 16 12 13 16 18 17 16 14 12 11 10 10 10 12 12 12 12 11 9 7 5 3 3 3 4 4 4 5 6 7 8 10 12 14 15 16 17 18 18 18 19 17 15 14 14 15 16 17 18 18 18 19 19 19 19 19
25 25 24 24 22 20 17 14 13 13 13 11 10 11 12 11 10 10 12 15 17 18 16 15 15 15 15 16 18 17 15 14 16 18 18 17 15 14 13 12 12 13 13 12 12 12 9 8 7 6 4 3 3 3 3 4 5 7 9 11 12 14 16 17 18 18 18 19 19 19 18 15 15 15 16 16 17 18 19 19 20 20 20 19 19
27 26 25 25 24 22 19 17 14 14 15 15 14 14 13 12 11 9 6 7 11 16 17 16 14 14 16 15 13 13 13 15 17 18 18 18 17 16 15 14 14 15 14 12 12 12 9 8 7 6 4 3 3 3 3 4 6 8 10 12 15 16 17 18 19 19 19 19 19 20 19 17 17 17 17 17 18 19 19 20 21 20 19 18 19
28 28 26 25 25 24 22 20 17 15 15 16 18 18 15 15 15 14 10 8 9 11 13 13 12 13 15 15 12 11 13 15 17 19 19 19 18 17 17 17 16 14 11 10 11 11 9 8 7 5 3 3 3 4 4 5 7 9 11 13 15 17 18 19 19 20 21 21 21 21 20 20 19 18 18 18 19 20 21 21 20 20 19 19 19
27 27 27 26 26 26 25 22 19 17 15 16 18 19 19 18 17 16 14 14 15 15 14 15 15 15 15 14 13 13 14 17 19 20 20 20 19 19 19 19 18 15 11 10 10 9 8 7 6 4 4 4 4 4 4 6 8 10 12 14 16 18 19 20 20 21 21 22 22 22 22 22 21 20 19 20 21 21 21 21 21 21 21 21 20
27 26 26 26 26 27 27 25 22 20 18 16 16 17 20 22 21 19 17 16 17 18 18 18 18 16 14 13 14 15 17 19 21 21 20 20 19 19 19 19 18 15 13 11 9 8 7 6 5 4 4 5 5 4 5 7 9 10 12 15 17 19 19 20 21 21 22 22 22 22 22 22 22 22 22 22 22 21 21 21 21 22 22 21 21
26 25 25 25 25 26 26 26 24 22 21 19 17 16 17 20 22 22 22 21 20 20 20 21 20 18 17 17 17 19 20 21 21 21 20 20 19 16 15 16 16 14 12 10 8 7 7 5 5 5 6 5 4 5 6 8 9 11 13 16 18 19 19 20 20 20 21 21 21 21 22 22 23 23 22 21 21 21 21 22 22 22 23 24 22
25 25 25 25 24 24 25 25 25 24 23 22 20 18 17 18 20 21 22 23 23 23 24 24 22 22 23 23 23 24 24 24 23 22 21 20 18 15 13 14 14 12 11 9 8 7 6 5 5 6 6 4 4 6 7 8 10 12 15 17 18 19 19 20 19 19 20 20 21 21 22 23 24 24 22 21 21 21 21 23 23 23 23 23 21
24 25 25 25 24 24 24 24 24 24 24 23 23 21 19 18 20 21 22 23 23 23 24 25 24 25 27 28 27 27 26 26 25 23 21 18 16 14 14 13 12 10 9 9 8 6 6 5 6 6 4 3 5 6 8 9 11 13 16 18 19 19 19 20 20 20 20 20 21 22 23 24 25 25 24 23 23 22 22 23 24 22 22 22 21
23 23 24 24 24 24 24 23 23 23 24 24 24 24 22 21 22 23 24 26 25 24 25 26 26 26 29 30 30 29 28 26 24 22 21 19 17 15 14 12 10 9 9 9 8 6 5 6 6 4 2 3 5 7 8 10 12 15 17 18 19 19 19 19 20 19 19 20 21 23 24 25 26 26 26 25 25 24 23 23 24 23 23 22 23
20 21 21 22 23 24 22 22 22 22 23 23 24 25 24 23 23 24 25 27 28 27 25 26 27 28 29 30 30 28 26 24 22 21 20 19 17 15 13 10 8 8 8 8 7 6 6 6 5 3 1 3 6 8 9 11 14 16 18 18 19 19 18 18 19 19 19 20 22 23 25 26 26 26 26 26 25 25 25 24 24 24 24 23 23
10 14 16 17 20 21 20 20 20 20 20 21 23 23 23 22 21 22 21 23 26 27 26 25 27 30 29 28 27 25 23 22 21 20 19 18 16 14 11 9 8 8 8 7 6 5 6 5 4 2 1 4 7 9 10 13 15 17 18 18 18 18 18 18 18 20 20 21 22 24 25 26 26 26 26 26 25 25 25 25 25 24 23 23 23
5 4 9 12 16 17 17 17 17 17 18 19 19 19 20 19 19 21 20 18 18 24 29 29 27 29 29 27 24 22 21 20 20 19 18 17 15 13 11 9 8 7 7 6 5 5 5 5 3 1 2 5 7 9 11 13 15 17 18 18 18 18 17 17 18 20 21 21 23 24 25 25 25 25 26 26 26 25 25 25 25 24 23 23 22
13 9 9 10 12 13 12 13 14 15 15 16 16 16 17 17 17 20 22 18 13 18 28 31 29 28 27 24 21 21 20 19 19 18 17 16 14 12 10 8 7 7 6 5 4 4 4 4 3 1 2 5 7 9 11 13 15 16 18 18 17 17 17 17 19 20 21 22 23 25 25 25 25 25 25 25 25 24 24 23 24 24 23 23 21
18 16 15 14 13 12 11 12 13 14 15 15 15 15 16 17 17 19 23 22 17 19 27 31 29 27 25 22 20 20 19 17 17 17 17 15 13 11 10 8 6 6 5 5 5 4 3 3 3 2 3 5 7 9 10 12 14 16 17 17 16 16 16 17 18 20 21 22 23 24 24 25 25 25 25 25 25 24 23 22 23 22 22 22 21
23 21 20 18 17 16 15 14 15 16 17 17 18 18 18 19 20 21 23 25 25 25 27 29 27 25 23 21 19 18 16 16 17 17 16 14 12 11 9 7 6 5 6 6 6 5 4 4 3 3 3 5 6 8 9 11 14 16 16 16 15 15 15 16 18 19 21 22 22 23 24 25 25 25 25 25 24 22 21 22 22 22 21 21 21
25 25 24 23 22 21 20 19 19 19 19 20 21 22 22 22 23 23 24 26 26 26 27 27 25 23 21 19 17 16 16 17 18 17 16 14 12 10 8 6 5 6 7 7 7 6 5 4 3 4 4 5 7 8 10 11 13 15 16 16 14 14 15 16 18 19 20 21 22 22 23 24 25 25 25 25 24 21 20 20 21 21 21 21 20
26 26 26 25 25 24 23 23 23 23 23 23 23 23 24 25 25 25 25 25 25 25 25 24 22 21 19 17 16 16 18 19 18 17 15 13 11 9 7 5 5 6 7 7 7 7 6 5 5 5 5 5 7 8 10 11 12 15 17 17 15 14 15 16 17 19 20 20 20 22 23 24 24 24 24 25 24 22 19 18 19 21 21 20 20
25 26 26 26 26 25 25 25 25 25 25 26 25 25 25 25 25 24 24 23 22 22 22 21 20 18 17 16 17 18 20 19 18 16 14 11 9 7 5 4 5 6 7 7 7 7 6 5 6 6 6 6 7 9 10 12 13 14 16 17 17 16 15 15 16 17 18 19 20 21 22 23 23 23 23 24 24 23 20 18 18 20 20 20 20
23 24 24 24 24 24 24 24 25 24 24 25 24 24 24 23 22 22 21 21 21 20 20 19 18 17 17 18 20 21 20 18 16 14 12 9 7 5 3 3 4 6 6 7 7 6 6 6 6 6 6 6 7 8 10 12 13 14 15 17 18 17 16 15 15 15 17 18 19 21 22 23 22 22 22 23 24 24 22 19 18 19 20 19 19
22 22 23 23 23 22 22 22 23 23 22 22 22 22 22 22 21 20 20 20 20 19 19 18 18 19 20 20 21 19 18 16 14 12 9 7 5 3 2 2 4 5 5 5 5 5 5 6 6 7 7 6 7 8 10 12 13 13 14 15 17 18 16 15 15 15 16 17 18 20 21 22 21 22 23 23 24 24 23 21 20 20 20 19 19
Wind_Direction
184 190 189 186 192 198 205 214 218 224 224 225 230 225 221 222 216 214 221 220 218 214 209 206 206 207 208 206 204 201 196 190 184 182 177 167 161 154 151 151 145 138 134 132 134 137 134 129 128 126 123 120 115 108 105 104 100 99 98 89 81 74 61 62 75 86 76 54 41 41 40 36 34 32 30 32 33 32 31 31 29 28 29 27 26
192 193 188 184 189 194 199 216 224 230 232 229 226 224 224 226 220 215 219 224 225 222 216 211 209 213 217 216 215 211 209 206 203 203 203 200 192 182 176 171 168 164 156 149 146 149 152 143 136 134 131 125 119 115 110 109 106 101 97 82 72 68 52 50 59 63 60 51 42 42 40 36 34 33 30 30 31 29 29 31 31 30 29 25 20
196 193 187 184 189 197 203 216 225 230 236 232 226 224 225 227 226 220 215 219 225 224 220 214 214 218 220 222 223 220 217 218 222 225 226 228 225 217 214 209 209 212 203 190 178 174 178 168 152 149 150 147 137 134 132 123 116 101 92 74 61 61 49 40 46 51 51 45 38 37 37 34 33 32 30 30 30 28 26 28 28 27 26 23 18
198 195 191 189 194 202 207 217 226 229 234 235 232 228 225 227 231 226 219 217 218 219 220 218 219 220 221 224 225 224 226 230 238 245 248 249 248 243 240 239 240 242 241 236 225 218 217 210 196 182 175 185 191 189 194 183 169 118 94 78 59 57 45 34 37 42 43 44 40 34 33 34 32 28 24 24 25 24 22 21 19 18 18 17 15
199 199 198 196 198 205 211 218 226 228 229 233 236 231 225 226 230 230 227 221 216 216 216 217 221 225 226 229 231 233 235 235 238 247 256 259 258 257 257 255 258 260 258 255 252 248 248 243 232 218 207 210 216 217 220 217 211 197 148 109 69 54 40 31 30 28 29 36 42 34 27 28 27 23 18 16 16 15 13 14 13 10 8 9 11
206 206 206 206 205 209 216 221 225 228 229 233 235 229 224 224 224 227 229 225 218 212 208 210 215 223 233 235 240 251 250 242 242 245 254 263 263 261 262 262 265 267 266 264 263 263 265 263 256 243 234 231 229 226 224 220 216 210 196 174 133 66 37 33 24 18 20 26 30 26 21 19 18 17 14 11 10 8 6 5 5 4 2 2 5
212 211 211 213 215 216 219 221 223 227 232 234 232 225 222 223 221 222 223 220 214 207 204 206 205 217 259 256 251 269 268 259 261 262 267 271 266 261 261 262 264 267 269 271 269 269 271 271 268 260 254 251 246 239 233 227 221 214 207 198 186 178 47 38 24 15 18 23 18 14 14 12 10 11 11 9 8 6 4 1 356 355 356 357 358
212 211 212 214 217 219 221 222 224 226 228 227 223 219 219 216 210 211 212 210 207 200 199 205 209 225 271 272 257 267 269 264 267 275 283 281 269 262 263 264 267 269 269 270 270 270 270 270 270 267 262 259 254 249 243 237 228 217 211 210 208 208 172 47 22 12 11 14 9 1 1 2 1 1 3 5 7 6 4 359 352 349 349 350 352
216 215 215 215 217 219 220 220 221 221 217 211 207 206 205 195 190 200 208 204 194 183 180 198 209 215 251 280 261 256 259 264 272 283 290 285 273 271 271 271 272 272 270 270 269 269 268 268 269 270 267 263 257 252 247 242 238 230 220 215 217 220 209 248 1 358 354 354 353 346 345 349 354 355 354 359 2 358 354 352 349 346 343 343 347
197 205 211 216 219 219 218 216 215 214 210 201 195 196 195 188 190 205 211 203 193 190 203 224 223 223 247 261 244 237 247 261 274 287 289 282 278 278 275 273 271 269 268 268 265 264 263 263 264 267 269 264 257 252 246 240 238 237 232 226 226 226 216 223 336 334 323 323 327 330 331 335 343 348 345 346 347 343 343 346 345 343 342 342 342
164 182 194 206 213 212 209 208 208 207 204 197 192 191 194 198 202 206 206 200 198 207 220 223 223 226 229 225 225 235 248 259 273 283 279 274 279 280 277 277 273 271 271 270 269 268 265 264 264 266 269 267 259 251 243 237 233 229 226 229 232 231 228 240 286 289 278 279 289 300 307 312 322 329 328 329 332 335 339 341 340 340 343 343 334
292 197 196 201 206 205 199 196 195 195 191 185 182 184 192 203 207 202 199 202 209 219 219 212 214 221 219 218 228 240 248 258 270 272 261 268 309 312 301 287 275 272 273 273 276 277 276 274 272 268 268 269 264 253 241 232 226 220 219 223 224 226 236 253 262 258 251 253 265 275 280 289 300 307 311 319 325 329 332 333 335 336 335 331 318
359 276 235 227 224 212 198 188 184 186 186 184 188 200 212 220 214 206 206 213 220 222 215 210 213 220 223 226 232 237 244 256 255 234 210 356 351 341 328 313 302 295 289 285 284 285 286 285 282 278 274 271 267 257 240 223 213 209 211 213 213 219 233 251 264 266 257 256 265 269 267 273 284 292 302 311 319 324 325 326 329 328 325 322 315
34 16 316 266 256 245 215 195 186 188 192 194 200 214 225 226 215 209 213 216 214 210 209 211 216 222 227 230 230 234 241 238 213 185 53 1 9 12 8 8 14 14 7 355 340 327 316 306 298 294 287 278 271 254 228 210 202 201 205 209 216 226 235 246 257 257 254 256 263 264 263 270 277 287 299 308 316 321 322 322 324 323 320 317 314
39 34 25 354 298 272 242 219 207 205 208 208 208 215 223 224 216 212 214 212 209 207 209 215 222 229 234 235 235 234 225 204 186 175 355 7 25 33 32 32 29 25 22 19 13 7 358 340 321 308 294 280 263 230 205 199 200 204 208 215 225 231 235 242 247 249 251 255 261 265 268 277 285 295 307 315 320 321 321 320 321 320 317 313 313
34 30 30 27 13 341 280 243 231 228 225 220 216 221 226 226 220 214 209 206 207 212 216 223 229 232 233 231 224 212 196 186 188 207 332 9 20 31 33 30 27 23 21 19 16 12 8 357 338 317 289 252 210 192 193 199 206 213 218 223 230 233 235 240 243 249 254 255 261 268 273 287 300 308 315 318 321 322 320 319 320 318 315 311 312
28 24 25 26 22 11 339 279 245 236 234 232 231 229 226 220 215 211 208 209 213 218 218 218 218 215 210 204 195 188 187 192 201 204 195 20 29 38 35 29 27 23 18 16 15 13 11 4 356 329 254 207 188 188 200 206 211 224 229 227 228 230 232 237 245 253 259 266 277 287 295 303 307 312 317 320 322 323 320 317 319 318 312 308 307
18 17 19 19 19 18 7 338 270 221 215 215 214 209 200 196 195 195 196 195 192 191 189 185 184 184 183 181 181 187 196 200 197 190 168 110 62 52 46 39 33 26 20 17 16 17 24 33 47 76 202 196 195 206 213 214 223 237 236 226 221 219 216 227 250 266 279 292 301 307 309 310 310 312 316 319 320 320 317 314 315 314 308 303 299
348 353 0 6 13 23 26 14 337 192 165 156 159 161 158 156 157 159 162 162 160 163 167 168 168 171 176 180 186 194 199 196 187 178 157 120 84 66 58 46 38 36 29 25 33 47 62 82 92 105 152 169 177 188 193 204 219 222 218 212 202 196 207 234 269 289 297 302 308 312 312 312 313 313 313 313 313 312 310 308 309 310 308 305 302
322 326 328 336 348 8 30 35 26 203 176 161 159 161 158 152 150 151 151 150 151 155 160 164 167 171 177 184 189 192 194 189 181 170 153 131 109 91 72 51 50 67 82 99 105 112 118 117 111 112 121 128 134 141 144 154 169 169 182 203 195 200 251 287 300 306 310 313 314 315 314 312 311 310 308 307 308 308 307 306 305 306 307 306 304
316 313 310 310 312 317 355 34 51 137 189 184 173 169 168 165 161 160 157 154 151 152 154 157 159 161 166 171 176 181 183 182 178 170 150 124 106 89 61 52 67 189 191 169 148 140 139 136 132 130 131 130 130 131 131 134 144 202 295 307 308 308 310 313 316 317 318 317 316 315 313 311 309 309 309 309 311 312 311 308 305 302 300 299 299
318 312 304 298 295 293 296 321 30 112 149 180 185 174 171 174 174 171 167 164 160 157 154 151 146 143 143 146 154 164 174 191 236 264 269 271 266 273 288 251 190 205 196 172 158 151 148 150 150 148 147 143 132 113 78 33 359 348 348 345 337 328 320 317 318 318 318 317 316 315 314 314 313 314 314 315 315 316 314 310 306 301 295 291 289
316 313 306 298 291 282 276 279 284 202 151 166 186 182 176 182 183 178 173 170 166 160 155 149 142 136 134 138 146 159 209 248 254 254 251 247 244 248 254 235 207 205 196 176 165 159 156 157 154 150 148 135 101 49 19 8 359 359 1 345 326 317 316 316 317 318 319 319 319 318 318 319 319 319 319 318 317 316 313 309 305 300 293 288 285
310 308 305 301 295 283 269 264 264 257 245 245 245 225 200 192 187 182 180 178 172 166 161 157 153 149 150 160 179 198 216 225 226 226 225 224 225 230 231 216 203 196 179 165 163 163 162 159 153 147 133 91 63 48 45 44 43 49 47 2 332 322 320 321 322 322 323 323 322 322 322 322 322 321 319 317 315 313 311 308 305 301 295 291 289
305 304 302 300 299 293 278 263 256 255 254 255 257 255 242 217 189 177 177 178 176 171 169 168 167 168 175 185 194 202 207 209 208 208 209 210 209 211 210 198 184 174 162 156 159 161 161 156 147 132 111 95 93 91 85 84 83 73 33 336 326 322 321 325 327 328 329 328 326 325 323 322 321 318 316 314 312 311 311 310 309 308 304 300 299
300 299 297 295 295 297 292 277 259 249 247 250 255 255 248 238 229 219 204 193 190 186 182 182 184 185 189 193 197 200 200 200 201 201 201 203 201 194 187 174 161 156 154 155 159 159 153 148 143 134 126 119 113 106 96 88 70 13 341 332 329 329 331 334 335 334 332 330 327 324 322 321 319 317 316 314 313 313 314 312 311 311 310 308 306
294 293 291 289 289 289 291 289 277 257 245 243 245 248 247 240 231 225 216 206 201 197 192 190 191 192 194 196 198 199 199 197 198 199 199 198 194 187 179 167 158 155 154 154 156 156 150 146 144 140 133 123 110 96 87 72 24 356 352 348 343 343 341 338 336 336 334 332 329 327 325 324 321 320 319 318 315 315 314 311 309 307 308 308 306
288 286 283 282 283 283 282 284 283 272 255 243 237 241 248 247 238 230 223 213 205 198 194 193 193 193 196 198 197 196 197 199 201 202 202 200 194 187 179 170 162 158 155 152 151 150 149 146 142 136 130 121 111 91 69 43 14 3 358 353 348 346 344 342 341 340 339 338 335 332 329 326 323 321 321 317 313 313 313 311 308 306 306 307 303
281 279 277 277 277 277 275 273 274 278 270 252 239 237 241 244 248 244 231 217 212 209 202 199 199 198 197 199 197 194 196 201 204 204 202 201 200 193 184 175 167 157 153 154 152 150 149 147 144 141 133 119 101 71 36 19 11 4 359 357 357 356 355 353 350 346 344 341 337 332 330 326 321 319 318 314 310 310 312 312 310 308 308 305 299
275 274 274 274 272 271 271 268 265 268 270 257 242 232 227 227 231 231 222 218 226 230 223 217 217 209 201 198 197 194 194 197 197 197 195 192 191 189 181 176 168 157 153 155 155 154 153 149 144 140 128 102 76 51 30 16 11 12 13 14 9 3 359 356 351 346 344 340 336 332 329 322 316 314 315 313 311 311 311 312 311 309 307 303 298
269 270 269 268 267 267 268 265 257 251 252 254 245 228 213 207 212 216 216 216 217 216 215 221 222 211 198 193 190 187 184 184 186 189 188 183 181 180 174 171 166 159 158 159 156 156 156 150 139 131 120 100 76 51 35 26 27 26 20 14 8 1 357 353 350 346 342 340 336 332 327 319 312 311 312 311 312 312 312 311 310 307 303 299 295
262 263 265 264 264 263 262 257 252 246 244 244 239 223 210 202 202 208 216 217 211 206 209 215 208 194 187 189 188 183 178 175 176 179 179 177 176 174 170 166 159 155 160 163 156 150 151 149 141 135 125 101 76 58 52 52 42 26 12 3 360 357 354 351 348 345 342 339 335 330 326 321 315 314 313 313 313 313 312 311 309 305 302 297 292
258 258 259 259 260 260 257 251 248 245 238 230 223 215 208 205 200 191 195 211 209 204 204 201 193 183 180 182 184 181 174 169 170 173 174 172 170 166 160 156 153 155 163 166 154 145 146 146 141 136 126 102 88 87 79 57 33 16 6 359 354 353 352 351 348 345 342 339 335 330 328 325 322 319 318 318 317 315 311 309 308 305 301 296 292
257 256 255 254 254 254 252 247 243 243 240 234 225 218 217 220 215 203 192 185 180 183 185 181 178 181 181 178 175 171 168 167 168 170 169 167 165 161 154 150 152 158 165 163 153 148 147 145 140 136 127 114 111 105 79 43 19 7 1 356 352 351 352 352 350 348 345 342 338 335 333 330 327 325 323 321 320 316 312 309 307 304 300 296 295
256 255 254 251 249 248 248 245 240 237 238 238 232 225 223 225 220 211 207 198 181 172 172 171 172 178 181 176 170 167 165 165 167 168 167 163 161 158 153 150 152 157 158 153 148 147 147 146 142 137 130 127 119 97 56 23 8 1 356 352 350 351 353 354 353 350 347 344 341 338 336 333 331 329 326 322 318 314 309 306 304 302 300 298 296
254 253 251 248 245 243 244 243 239 235 233 233 235 232 225 219 214 213 216 208 185 169 164 163 163 165 165 164 164 164 164 164 164 164 164 161 160 160 157 153 154 155 152 148 145 144 144 144 140 136 136 131 109 66 27 7 358 354 352 350 350 352 355 355 353 350 347 345 342 339 336 334 333 331 328 323 317 312 308 305 304 303 302 300 297
251 248 246 245 242 239 239 239 237 235 232 230 231 231 225 217 211 209 208 203 191 178 168 161 156 153 151 156 161 162 160 160 160 160 158 158 161 165 163 159 158 157 152 149 149 148 146 142 139 138 134 118 81 31 5 356 351 347 348 350 352 355 357 355 352 349 347 344 341 337 335 334 334 332 328 320 315 311 309 308 308 306 304 302 298
250 246 243 242 239 235 233 233 232 231 230 227 226 227 224 216 208 203 197 192 187 179 169 162 161 158 155 157 161 161 157 155 155 155 156 158 162 166 166 162 160 157 153 151 151 150 147 143 139 137 127 96 42 7 354 349 345 344 347 351 354 357 357 353 351 351 349 344 340 337 336 336 335 333 327 320 315 313 312 311 309 305 303 302 298
251 246 242 240 236 232 229 227 226 225 224 221 219 221 220 211 202 197 189 183 181 176 166 162 164 163 160 159 160 160 158 156 155 156 157 161 164 165 164 160 157 154 152 151 149 150 147 142 141 137 120 59 13 358 349 342 341 345 350 353 355 357 356 353 352 353 351 345 341 339 337 336 336 333 330 325 320 316 313 311 308 305 302 301 299
251 244 239 234 230 227 224 221 220 220 219 216 212 212 212 208 202 196 187 181 180 178 171 166 166 166 164 163 164 163 160 156 155 157 159 159 160 161 160 158 155 152 152 152 150 150 148 146 148 145 111 20 359 350 343 340 343 348 352 354 354 356 356 354 352 353 351 346 342 341 340 339 337 335 332 330 325 320 316 312 311 310 307 304 303
255 242 235 228 223 220 217 214 214 215 216 213 208 205 205 205 202 196 189 184 181 178 173 169 168 168 166 165 166 165 161 156 156 160 160 159 159 157 155 153 148 146 150 153 152 155 158 157 159 159 63 4 349 343 342 343 346 350 352 354 355 356 356 354 352 352 351 347 345 345 343 342 341 336 332 330 328 325 322 319 318 316 313 311 310
272 240 228 219 213 208 206 206 209 210 210 209 206 203 201 199 195 190 186 183 180 175 167 162 163 164 163 162 162 163 162 159 160 163 161 158 155 151 147 143 137 139 147 151 153 162 167 164 167 177 359 350 343 342 345 347 349 351 352 353 355 356 355 352 351 352 351 349 348 348 346 345 343 339 335 332 331 329 327 325 323 320 318 317 317
27 199 197 195 194 193 194 196 199 200 201 200 198 197 195 191 187 183 180 180 180 170 159 155 156 157 157 157 160 162 161 160 161 162 159 155 153 149 146 141 137 142 151 154 154 162 169 172 179 203 335 340 340 344 348 349 350 351 352 354 356 355 352 350 350 351 351 350 350 350 349 347 346 343 339 336 334 332 330 328 327 325 324 323 321
64 88 119 139 155 165 176 184 187 189 190 187 182 183 183 178 174 173 172 175 178 162 151 149 151 153 153 155 159 161 160 159 160 159 157 155 153 150 148 145 145 153 162 165 162 166 179 193 202 230 327 333 339 346 349 349 351 352 353 355 356 354 351 350 350 351 351 350 351 352 351 349 348 346 342 339 337 334 331 330 330 330 329 328 326
72 80 91 104 118 131 144 157 163 164 165 161 157 158 160 157 155 156 158 160 158 148 143 144 148 151 151 153 157 159 159 159 159 158 158 157 155 153 151 151 155 166 180 187 190 198 214 223 224 247 303 323 339 348 349 351 355 355 355 355 355 352 351 351 351 351 350 349 350 352 352 351 350 348 344 342 341 338 334 334 335 334 332 332 331
72 79 85 89 96 104 112 121 130 136 140 141 140 139 139 140 142 143 145 146 145 141 139 141 145 147 148 150 154 157 158 159 159 158 158 157 157 156 157 159 169 186 197 200 205 218 236 244 246 261 288 316 341 352 353 357 360 359 357 356 356 354 352 351 351 350 349 348 349 351 352 352 352 351 349 347 345 342 339 340 342 341 339 337 336
72 76 80 84 87 92 98 105 112 117 118 120 124 127 128 130 133 135 137 139 139 137 137 139 142 144 146 148 151 154 157 158 158 158 157 159 160 162 166 173 185 196 199 201 210 227 244 252 256 266 288 316 342 355 1 3 3 1 0 360 358 356 354 352 350 350 349 348 349 351 352 353 353 353 352 351 349 346 342 343 346 348 347 344 343
77 77 80 83 85 88 91 96 100 104 106 109 113 117 120 122 125 127 129 131 132 133 136 139 143 146 149 152 155 158 159 158 157 157 158 160 163 167 175 189 197 195 196 203 216 233 248 255 254 264 286 315 340 356 4 5 3 3 3 3 0 358 354 351 349 349 349 349 350 351 353 356 356 356 356 355 354 351 346 343 347 352 352 350 349
80 82 84 85 86 88 91 94 95 97 102 106 107 109 112 116 119 121 125 128 131 134 138 143 147 151 155 155 156 157 157 156 155 156 158 160 164 170 182 198 197 191 196 209 225 238 247 248 251 262 285 314 336 351 0 2 0 1 3 3 1 358 355 352 351 350 349 351 353 354 355 358 1 1 0 360 359 357 353 348 350 356 357 354 354
83 86 89 90 91 93 95 97 99 101 104 106 108 108 111 115 118 122 127 131 134 139 144 148 151 154 154 153 152 154 154 154 155 156 157 159 163 167 179 198 197 193 200 213 227 238 241 242 250 266 284 309 332 345 353 355 355 357 1 2 1 359 356 355 353 351 350 353 357 358 358 1 4 6 6 4 3 3 0 357 356 360 1 0 359
86 90 93 95 98 100 102 102 103 106 109 112 113 115 116 118 121 125 130 133 135 138 142 145 146 148 149 149 151 152 152 153 154 155 156 160 164 165 176 198 197 198 204 213 224 233 236 239 254 269 282 305 329 340 344 347 350 352 355 359 1 360 358 356 355 354 355 358 1 1 2 5 8 11 10 8 6 5 5 4 2 3 5 6 5